KUIPER-00116

导读

KUIPER-00116是美国亚马逊公司“柯伊伯计划”卫星互联网星座的量产卫星,于2025年8月11日发射入轨。该计划旨在打造由超3200颗卫星组成的近地轨道星座,向全球用户提供低延迟宽带互联网服务,与SpaceX星链形成直接竞争。卫星部署完成后,将面向民用商业客户及美国政府提供网络接入服务,补充地面网络覆盖盲区。

基本信息
目录编号:
65153
目录名称:
KUIPER-00116
国际标识:
2025-171X
轨道中心:
EARTH
卫星名称:
KUIPER-00116
卫星全名:
KUIPER-00116
卫星状态:
在轨 (已飞行350 天)
发射日期:
2025-08-11 UTC
国别 :
美国 (US)
星等 :
--
轨道信息
数据来源 国际轨道数据 AOE轨道数据
星历时间 2026-07-27T21:10:58+0800
10小时前
查看轨道信息
2026-07-22T07:00:00+0800
6天前
查看轨道信息
半长轴 7007.674km 7007.686km
偏心率 0.0000544 0.0000524
轨道倾角 51.900° 51.900°
近地点辐角 95.323° 88.582°
升交点赤经 274.674° 299.399°
平近点角 264.779° 346.176°
近地点 629.155km 629.181km
远地点 629.919km 629.917km
周期 97.302分钟 97.302分钟
每日圈数 14.799328 14.799289
详细信息
使用方式:
暂无
2D轨道图
3D轨道图
轨道高度分析图
轨道倾角分析图
轨道综合分析图
查看轨道综合分析图